RH
13 14 13 13 12 12 12 12 12 12 11 11 9 9 8 8 8 8 8 8 8 7 6 5 5 6 5 6 6 6 6 5 5 5 5 5 6 6 5 6 6 7 9 10 15 17 18 21 23 29 32 30 29 31 30 31 35 35 33 29 27 27 27 31 31 34 36 34 35 36 38 38 38 37 38 44 43 41 42 45 43 41 39 33 29 29 29 31
15 13 14 13 12 12 12 12 12 12 11 11 9 9 9 8 9 8 8 8 8 7 6 5 5 5 5 5 6 6 6 5 6 5 4 4 5 5 5 5 5 7 8 10 16 16 17 21 22 28 31 30 29 28 28 29 32 32 29 29 29 28 27 29 29 32 34 33 33 35 37 40 42 40 44 50 44 41 43 42 40 35 32 29 28 31 30 30
16 14 14 14 13 12 12 11 12 11 11 11 10 9 9 9 9 8 9 8 8 7 5 5 5 5 5 5 6 6 6 5 6 5 4 4 4 4 5 5 5 7 8 12 15 14 18 21 23 30 31 29 26 25 28 28 28 28 27 28 28 26 25 26 29 32 33 32 33 34 34 35 38 40 46 50 43 42 44 40 35 30 30 30 29 30 31 31
17 15 14 14 13 13 12 11 11 11 12 11 10 10 10 10 10 9 9 9 7 6 5 5 5 5 6 5 6 6 6 6 5 4 4 4 4 4 4 5 6 6 7 12 13 12 18 20 24 30 29 29 25 25 30 27 28 29 28 27 26 25 24 26 31 32 33 33 33 31 33 33 35 40 44 48 45 42 42 40 32 28 30 31 30 30 32 33
18 16 14 14 14 13 12 11 11 11 11 11 10 10 10 11 10 10 10 7 5 5 5 5 5 6 6 6 6 6 6 6 6 5 4 4 4 3 4 4 6 6 7 11 12 11 15 17 23 26 26 30 25 25 29 25 27 29 28 28 27 26 24 28 33 33 32 33 34 34 35 33 35 41 44 50 52 49 46 40 30 25 28 30 31 30 30 32
19 16 14 14 13 13 12 11 11 11 11 11 11 11 11 11 11 10 9 6 5 5 5 5 5 5 6 6 6 5 6 6 8 7 4 3 3 3 4 5 6 6 7 11 10 11 13 16 22 22 23 29 25 24 25 21 25 28 26 26 26 25 25 28 30 31 32 33 33 33 32 33 35 38 41 47 48 46 45 38 30 26 25 26 29 30 30 31
19 16 14 13 13 13 12 11 12 11 11 12 12 11 12 12 12 10 8 5 5 5 5 4 5 5 6 5 6 6 6 7 8 7 4 3 3 3 4 5 6 6 8 10 10 11 13 18 23 21 22 25 24 24 20 17 25 30 26 24 26 25 26 29 30 32 31 31 31 30 31 33 34 35 37 40 38 36 36 34 32 28 25 25 27 29 30 31
19 16 14 13 12 12 12 12 12 12 12 13 13 12 12 12 12 10 7 5 5 4 4 4 4 5 5 5 6 6 5 7 8 6 4 3 3 3 4 5 6 6 8 9 9 11 14 20 22 20 24 25 22 22 17 19 27 29 27 26 26 25 29 33 32 30 29 30 31 31 32 33 33 35 37 38 34 31 31 32 33 29 26 26 27 28 29 30
18 17 14 13 12 12 12 11 12 12 12 13 13 12 12 13 12 10 8 5 4 4 4 4 3 4 4 5 7 7 7 7 6 6 5 4 3 3 4 5 6 6 8 9 9 12 16 21 22 22 27 26 21 19 17 23 29 26 25 26 25 26 30 33 31 30 31 29 27 27 29 30 32 34 37 39 35 31 31 33 35 31 26 26 29 30 30 31
17 17 15 13 12 11 11 11 12 13 13 13 13 12 12 13 12 10 8 5 4 5 5 4 3 3 3 5 6 6 9 8 6 6 5 4 3 3 4 5 6 6 7 9 9 12 16 21 21 19 22 22 19 20 18 24 29 26 26 27 27 28 31 33 32 32 32 28 26 25 25 28 30 31 36 40 36 32 32 33 34 32 30 31 30 28 31 35
16 17 15 13 12 11 11 11 12 13 14 14 14 12 12 13 12 10 9 6 5 5 7 4 3 3 3 6 7 7 9 8 7 7 6 4 4 3 5 6 6 6 8 8 8 14 19 20 18 16 19 18 18 20 20 25 28 27 28 27 28 31 32 34 33 33 33 30 29 27 27 31 33 32 35 40 40 38 36 34 34 34 33 34 31 28 32 34
15 16 15 13 12 11 11 11 12 14 14 14 13 13 13 13 11 10 9 7 5 6 8 5 3 2 4 6 7 8 9 8 8 7 6 5 4 3 5 6 6 6 8 7 9 14 19 18 15 18 21 19 18 19 20 25 28 28 29 29 30 33 33 34 35 33 32 30 31 34 35 34 33 33 35 38 39 39 42 39 38 39 35 32 31 33 36 34
15 15 16 13 12 10 10 11 12 14 14 14 14 13 13 13 12 10 9 8 6 7 8 7 4 1 5 9 6 7 8 9 8 7 7 7 5 6 6 6 6 7 7 6 10 14 15 15 14 16 18 20 22 19 21 25 26 28 32 33 34 36 34 34 35 33 33 32 34 41 41 36 32 33 37 38 36 37 45 46 42 40 36 35 35 36 38 38
14 15 15 14 12 10 10 11 11 13 14 14 14 13 13 12 12 11 10 8 7 9 8 8 7 4 8 12 7 5 7 9 8 6 8 7 6 6 6 6 6 7 8 8 12 14 14 14 14 14 13 20 21 19 26 28 25 31 33 33 38 40 35 33 34 34 36 35 35 43 41 36 33 32 36 39 36 38 44 47 47 45 40 37 39 39 41 40
13 14 15 14 12 10 10 10 11 13 14 14 14 13 13 12 12 11 9 8 9 10 10 9 9 7 10 14 8 4 6 7 7 7 8 7 6 6 5 6 6 6 8 11 13 14 15 13 13 13 12 16 16 17 30 30 27 34 34 35 40 43 40 35 32 35 39 34 34 45 44 37 34 32 34 37 37 38 40 40 44 48 45 40 40 40 42 41
13 14 14 14 12 10 10 10 11 12 13 14 14 13 13 12 12 11 10 9 10 11 11 13 12 9 12 16 10 5 6 7 7 7 8 7 6 6 5 5 6 7 9 12 14 14 14 12 12 13 12 14 14 19 31 31 32 34 33 37 39 42 45 39 33 34 38 35 33 42 46 42 36 32 33 35 35 34 33 33 35 40 42 41 42 42 42 42
13 13 14 14 13 10 9 10 11 12 13 14 14 13 13 13 12 13 11 9 11 11 11 15 15 10 12 14 9 5 7 9 8 7 7 7 6 5 5 6 7 8 10 12 14 14 14 12 12 13 12 12 14 23 31 31 33 32 31 38 37 39 46 42 37 34 33 35 36 37 44 45 37 32 32 33 35 30 29 32 33 35 34 35 42 44 43 41
13 13 14 14 13 11 9 10 11 12 13 13 14 15 13 12 13 13 12 10 12 12 12 14 13 11 12 10 8 7 9 10 7 6 7 7 8 7 6 7 7 8 10 12 14 15 13 12 12 12 12 12 15 23 29 27 29 29 29 34 35 36 43 44 41 36 32 34 37 38 43 44 35 33 32 31 35 32 28 30 32 34 33 34 40 42 42 40
12 12 13 14 13 12 9 10 11 13 13 13 15 15 13 14 15 14 12 12 14 13 15 17 12 12 15 10 7 10 11 10 7 6 7 6 8 8 6 7 7 8 10 12 15 14 14 12 12 12 11 12 16 23 27 25 24 25 26 30 34 35 38 41 39 37 35 34 36 36 41 44 37 35 34 30 34 34 30 29 31 33 33 35 39 39 40 41
12 12 12 13 13 12 10 9 11 13 13 13 15 16 18 19 20 18 16 15 15 13 14 17 12 12 15 10 8 11 12 9 7 7 7 6 8 8 7 7 8 8 9 13 15 15 14 12 11 12 11 12 15 21 24 22 18 22 25 26 30 32 33 36 35 35 34 34 36 35 40 45 40 36 35 31 32 35 34 31 31 33 32 33 35 37 38 40
12 12 12 13 14 13 11 9 11 13 13 14 16 18 20 20 18 20 17 13 14 13 13 15 12 13 16 12 9 11 11 9 8 9 7 7 8 8 8 8 9 9 10 13 15 14 13 12 11 11 13 14 13 17 22 20 17 19 23 23 26 28 29 33 35 34 32 34 38 37 38 44 42 39 38 33 30 34 38 36 33 31 32 32 33 36 35 37
12 12 12 12 13 13 11 10 10 13 14 14 16 19 20 19 16 17 15 12 13 12 12 13 12 12 13 12 10 10 10 10 10 10 9 7 8 9 9 9 10 9 10 12 14 14 13 12 11 10 14 15 14 16 20 19 19 20 21 21 23 23 27 34 34 31 30 33 37 38 37 40 43 42 39 35 32 31 35 37 35 32 33 33 33 35 33 33
12 12 11 12 13 13 12 11 10 13 15 15 17 19 19 18 17 16 15 13 13 12 11 12 12 11 12 12 11 9 10 10 9 10 10 7 8 9 10 10 10 10 11 12 13 14 13 12 11 12 15 18 16 15 15 15 16 19 20 20 20 20 25 34 33 28 29 30 34 39 39 41 45 45 40 37 37 34 32 32 33 34 34 33 34 35 32 32
13 12 12 13 13 14 13 11 11 14 16 16 17 18 18 18 17 16 15 13 13 12 11 11 11 11 12 12 11 8 9 10 9 10 10 8 9 10 11 10 10 10 10 12 12 13 13 11 11 14 16 16 16 14 12 14 15 18 20 20 19 19 20 27 31 30 29 27 29 36 42 45 47 47 44 40 38 37 33 30 31 34 35 32 33 35 33 32
14 13 13 13 14 15 15 13 15 17 16 16 17 17 19 19 18 17 16 15 14 12 10 10 11 11 11 13 12 8 9 10 9 10 9 9 10 12 12 10 10 11 10 11 12 12 12 10 10 15 16 12 14 14 11 14 18 18 19 19 17 17 17 21 28 31 29 27 26 31 39 46 51 52 49 43 39 37 37 35 35 37 36 31 32 35 33 32
14 13 13 14 14 15 16 16 18 17 15 16 18 20 21 20 18 18 17 16 14 13 12 9 10 11 11 13 11 8 9 10 9 10 9 8 10 12 13 11 10 11 10 11 12 11 12 12 11 14 14 11 13 14 13 14 19 19 17 19 18 16 16 17 24 29 29 27 28 30 33 43 52 52 47 42 38 37 39 40 40 40 36 29 29 32 31 32
14 14 14 14 15 15 17 17 16 15 15 17 19 21 20 20 19 18 20 21 16 13 14 10 9 11 12 13 11 8 9 10 9 10 8 8 10 12 12 11 10 11 11 11 11 10 13 13 11 11 13 12 12 14 14 14 18 20 17 18 19 17 17 17 21 28 28 26 29 32 31 34 42 46 48 47 44 41 40 39 39 38 34 28 27 29 30 33
14 13 14 15 15 16 17 16 14 13 15 17 18 20 19 19 20 18 23 29 20 14 14 10 9 12 12 12 10 7 10 10 9 10 8 8 10 12 11 10 11 11 10 10 10 9 11 12 11 11 12 12 11 14 17 15 18 22 20 19 19 19 18 18 21 26 27 25 28 32 34 35 36 37 42 44 44 45 41 39 40 38 35 30 27 30 30 30
13 13 14 15 16 16 17 16 14 14 15 17 19 21 19 20 21 20 26 32 22 14 14 11 10 12 13 11 8 8 11 11 10 10 9 8 10 11 11 11 10 11 10 9 11 12 11 12 13 12 12 13 14 18 21 18 18 22 24 22 23 21 19 21 23 26 27 27 29 32 36 40 38 33 35 38 40 44 43 41 42 40 35 32 29 31 31 29
12 12 14 15 15 16 17 16 15 14 15 16 19 21 21 22 24 25 30 30 21 15 13 12 11 11 13 11 8 11 12 11 11 11 9 8 10 11 11 12 10 10 11 10 14 19 16 13 13 12 15 18 20 21 22 20 19 22 23 23 26 24 22 25 27 28 30 32 31 32 34 38 37 33 34 36 38 41 42 41 41 39 37 36 32 31 33 31
11 11 13 15 15 16 16 17 17 16 15 17 20 20 21 24 26 28 29 24 18 16 13 12 12 11 12 11 9 12 14 12 11 11 10 9 10 10 10 12 10 9 11 11 15 19 16 14 13 13 16 21 22 21 20 18 17 21 24 24 26 27 28 29 29 31 33 32 29 28 30 33 35 32 30 33 36 37 38 36 38 41 41 38 36 33 34 35
11 11 13 14 15 15 16 17 18 17 16 17 20 21 23 29 28 25 27 24 18 17 14 12 12 11 12 12 10 12 12 11 12 11 10 9 10 10 8 11 12 11 11 12 14 15 14 14 15 14 16 19 22 22 20 17 17 21 25 25 27 29 32 31 30 32 32 28 27 26 26 28 32 30 27 30 35 35 34 30 31 40 43 41 39 37 36 38
11 10 12 14 15 16 16 16 16 16 16 17 20 21 24 32 30 21 25 27 20 18 17 13 12 11 13 13 12 12 12 11 13 12 10 9 10 10 9 11 13 13 13 14 17 16 15 15 16 16 16 17 20 22 20 19 19 21 24 26 27 28 31 31 28 30 30 27 26 26 27 28 28 27 24 26 29 31 31 27 25 34 42 42 42 41 39 40
12 11 12 13 15 15 16 16 15 15 15 17 20 23 26 32 30 22 24 27 24 24 21 15 13 13 14 13 13 12 11 12 12 12 11 9 10 10 9 12 13 13 16 17 19 18 18 20 17 14 16 15 16 20 21 21 21 21 23 25 26 25 27 28 25 25 26 24 24 26 28 28 27 26 25 24 24 26 27 26 25 27 32 38 43 43 40 41
13 12 12 13 14 15 15 16 16 15 17 19 21 23 28 31 27 23 25 24 25 28 23 16 13 13 13 14 14 13 11 12 11 11 11 10 12 12 10 13 13 13 19 21 20 18 19 22 18 14 17 16 14 19 21 22 22 21 21 22 24 24 23 24 24 23 25 25 26 30 30 29 27 26 26 26 25 23 21 22 24 23 23 29 40 44 39 39
13 13 13 15 15 15 15 16 16 16 18 21 22 23 27 27 22 23 28 26 26 29 25 18 14 13 14 14 15 14 11 12 12 11 12 11 12 13 11 12 12 13 19 21 19 19 18 21 21 18 19 16 15 20 21 19 20 20 20 20 21 21 21 22 23 23 25 25 26 27 27 27 28 26 26 26 25 23 20 18 20 23 24 24 34 43 40 38
13 14 14 16 18 18 17 17 17 18 19 21 22 23 24 24 22 26 33 32 31 32 29 24 16 13 15 15 16 17 12 13 14 11 13 13 12 13 12 13 13 12 16 19 18 19 17 18 20 21 20 17 17 21 20 18 19 19 20 20 20 22 22 23 24 24 27 27 24 22 23 27 28 29 31 30 27 26 23 20 18 22 24 22 26 38 40 37
12 15 15 15 19 21 19 18 19 20 20 20 20 21 23 23 25 31 36 36 36 35 32 30 23 16 16 16 17 19 15 13 14 12 15 16 14 14 14 14 15 12 15 19 18 18 18 18 20 21 21 20 18 20 21 19 19 20 20 20 22 24 26 25 26 26 29 30 27 24 25 27 27 29 34 34 31 29 29 26 22 21 25 23 23 33 38 37
14 19 20 18 20 22 20 20 22 22 20 18 18 19 20 23 29 35 36 33 34 31 27 29 29 21 17 17 18 19 16 14 14 13 15 17 16 16 15 16 17 14 15 20 19 18 19 20 22 23 23 22 18 18 21 20 19 19 21 23 22 23 25 25 26 26 27 29 27 25 25 26 25 26 31 33 30 27 26 26 23 20 23 26 26 29 33 34
19 21 22 21 21 22 22 22 24 22 18 16 16 18 19 23 29 34 32 30 31 28 22 26 34 29 21 18 18 19 16 13 15 14 14 17 17 17 16 17 19 16 15 18 19 20 20 20 22 23 23 24 21 17 18 21 21 18 19 24 24 22 23 25 27 29 27 27 26 24 24 26 27 26 28 31 29 27 25 23 21 20 20 26 29 26 27 29
22 20 20 21 20 20 22 24 23 20 18 16 15 18 23 25 27 28 29 28 26 26 23 25 34 35 28 22 19 19 17 14 15 16 15 16 18 19 18 19 20 18 16 16 17 20 21 20 22 23 24 26 24 18 16 19 22 21 21 23 23 22 23 25 28 29 27 25 25 25 25 27 29 27 27 30 29 28 26 22 22 23 22 27 29 22 22 26
24 20 21 22 20 20 22 23 22 20 18 16 16 19 25 28 28 27 29 27 23 24 24 24 29 35 33 28 22 20 19 16 16 16 15 16 19 19 19 18 17 17 17 16 15 17 20 20 21 21 23 27 26 20 18 19 20 21 22 22 22 22 23 25 27 26 26 27 26 25 25 27 29 28 28 29 28 26 25 22 23 25 24 28 29 22 22 25
27 23 25 24 21 22 25 25 25 23 19 17 18 22 26 30 32 30 28 27 25 24 24 24 27 31 33 30 26 22 20 18 18 17 16 16 17 18 19 18 16 16 18 17 16 17 19 20 22 22 22 25 24 21 21 21 22 23 23 22 22 23 23 24 26 26 29 32 31 29 27 28 31 30 28 28 27 25 24 22 23 24 24 29 28 23 24 25
27 24 25 24 21 22 25 28 28 24 21 20 21 24 29 32 32 31 29 28 27 25 25 25 25 28 30 30 29 27 23 20 20 19 17 17 17 18 21 19 16 16 17 16 17 18 18 19 21 23 24 23 24 25 24 22 22 23 24 22 22 23 23 24 26 28 31 33 34 33 30 31 34 33 30 30 29 27 26 24 24 22 23 31 32 26 26 27
26 26 24 21 21 22 22 26 31 30 27 25 25 28 33 33 30 29 28 28 28 27 26 26 26 28 29 29 29 29 27 25 23 20 17 18 19 20 21 19 16 16 18 16 17 19 20 20 20 22 24 23 23 28 27 23 21 21 22 23 22 22 22 23 24 27 31 32 33 33 31 33 36 34 32 32 30 28 28 27 27 24 23 30 32 29 28 29
25 29 30 23 20 22 23 25 32 37 36 34 33 34 34 32 27 26 26 28 28 27 25 26 27 27 29 30 28 27 28 27 23 20 18 17 20 23 23 19 15 16 18 17 19 21 22 23 22 20 22 22 23 28 28 25 23 21 20 21 22 22 22 22 23 27 30 31 31 33 32 32 35 35 35 35 32 30 30 30 29 26 24 27 29 28 29 31
24 35 40 33 26 24 24 26 29 36 39 39 39 37 35 32 28 25 26 27 28 27 25 24 26 27 28 31 30 27 26 24 22 24 23 18 19 24 24 18 15 18 19 17 18 21 20 22 24 21 20 21 24 28 28 26 24 24 23 21 21 22 22 24 24 25 29 32 33 34 34 33 33 32 32 34 33 30 29 29 29 27 24 26 28 29 30 32
29 39 40 37 35 31 29 29 30 34 37 39 40 39 35 33 30 28 28 29 28 27 27 25 25 26 27 30 33 31 27 24 22 25 26 22 21 26 25 19 16 19 19 17 18 19 20 22 22 21 20 19 21 24 25 23 21 22 24 24 23 22 22 24 26 26 28 31 31 33 36 37 35 33 32 34 33 31 30 29 28 25 22 23 27 30 30 31
29 36 35 34 38 40 38 38 35 35 38 39 39 39 37 34 31 30 31 32 29 27 28 28 25 25 28 30 33 35 34 32 28 26 28 27 24 26 27 22 19 20 19 18 20 20 20 22 21 20 21 20 19 20 21 23 24 25 25 24 24 24 24 26 27 26 27 29 29 32 37 38 36 36 36 35 32 30 29 27 26 24 22 22 26 28 28 28
28 32 35 33 32 37 40 39 37 36 36 36 37 38 37 35 34 34 33 33 34 34 33 31 29 30 31 31 33 38 40 40 37 34 33 31 28 29 30 26 24 24 21 20 22 21 20 22 21 22 25 26 22 20 21 26 29 27 26 24 23 24 25 26 26 26 27 30 30 32 35 36 35 34 33 31 30 31 29 27 25 22 20 22 24 24 24 26
33 32 34 34 32 36 37 34 34 35 35 35 37 38 37 36 37 36 33 31 36 41 38 34 34 34 31 31 35 40 40 38 38 37 34 32 32 34 33 29 26 27 26 24 24 24 23 23 23 25 29 28 26 25 27 29 28 25 25 25 24 24 24 25 26 27 29 31 33 34 34 35 35 34 32 32 32 32 30 28 24 22 22 23 22 20 21 24
36 35 33 34 37 38 35 33 33 33 36 40 40 39 39 38 35 33 31 31 35 38 36 34 33 32 32 37 39 38 38 37 38 38 34 32 33 33 33 32 30 30 29 27 26 27 27 26 25 28 30 29 28 29 30 30 29 27 26 25 25 25 24 25 28 30 31 34 35 35 35 35 34 35 35 34 31 29 27 25 24 24 25 24 21 19 20 23